Zurück zum Katalog

STARLINK-38010

AktivKommunikationSSO
NORAD 69727·PAYLOAD·🇺🇸 United States

Gestartet Jun 28, 2026 von Vandenberg Space Force Base

Loading…

Nächste Überflüge (nächste 24 Stunden)

TLE

AktuellSource: CelesTrak SupGP

Epoche: Sep 15, 2026, 04:08 UTC

1 69727C 26147Z   26258.17270833 -.00054919  00000+0 -36944-3 0  2581
2 69727  97.2841 297.5901 0001015  92.2688 236.7006 15.75188906    14

Verfolge STARLINK-38010 in Echtzeit mit AllMySat

Download on the App Store